Simultaneous Nadir Overpasses (SNOs) Predictions

Prediction of SNOs over PacNW region [( 10.00, 139.50) to ( 22.70, 165.60)] between AQUA and NPP Satellites:

Table of predicted SNOs over PacNW region for the next 30.0 days since TLE Epoch: 3/13/2020
Index Date (AQUA) Time (AQUA) AQUA Lat,Lon Date (NPP) Time (NPP) NPP Lat,Lon Distance(km) Time Diff (sec)
1 03/21/2020 15:59:38 22.58, 147.47 03/21/2020 16:01:27 23.25, 144.57 306.31 109
2 03/29/2020 15:10:12 22.62, 159.83 03/29/2020 15:10:44 23.19, 157.23 273.84 32
3 04/06/2020 15:59:39 22.60, 147.47 04/06/2020 16:01:28 23.28, 144.56 306.91 109




NCC Satellite Simultaneous Nadir Overpasses (SNOs) Prediction Service
